This is the latest recevied weather packets stored in our database for station/object SR9WXP. If no packets are shown the sender has not sent any weather packets the latest 1 day(s).
| Time | Temp. | Humidity | Pressure | Rain* | Wind** | Luminosity | Snow |
|---|---|---|---|---|---|---|---|
| 1777982925 | 15.56° C | 47% | 852.2 hPa | - | 3.58 m/s, 183° | - | - |
| 1777982866 | 15.56° C | 47% | 852.2 hPa | - | 3.58 m/s, 182° | - | - |
| 1777982746 | 15° C | 47% | 852.2 hPa | - | 3.58 m/s, 177° | - | - |
| 1777982621 | 15° C | 47% | 852.3 hPa | - | 4.47 m/s, 189° | - | - |
| 1777982503 | 15.56° C | 47% | 852.3 hPa | - | 4.47 m/s, 190° | - | - |
| 1777982382 | 15° C | 47% | 852.2 hPa | - | 4.47 m/s, 185° | - | - |
| 1777982321 | 15° C | 47% | 852.2 hPa | - | 4.92 m/s, 182° | - | - |
| 1777982261 | 15° C | 47% | 852.2 hPa | - | 4.92 m/s, 182° | - | - |
| 1777982142 | 15° C | 47% | 852.2 hPa | - | 4.02 m/s, 179° | - | - |
| 1777982018 | 15.56° C | 47% | 852.2 hPa | - | 3.58 m/s, 181° | - | - |
| 1777981900 | 15.56° C | 47% | 852.3 hPa | - | 4.02 m/s, 182° | - | - |
| 1777981780 | 15.56° C | 47% | 852.3 hPa | - | 4.92 m/s, 182° | - | - |
| 1777981718 | 15.56° C | 47% | 852.3 hPa | - | 4.92 m/s, 182° | - | - |
| 1777981660 | 15.56° C | 47% | 852.3 hPa | - | 4.47 m/s, 183° | - | - |
| 1777981415 | 15.56° C | 47% | 852.3 hPa | - | 3.13 m/s, 188° | - | - |
| 1777981295 | 15.56° C | 47% | 852.3 hPa | - | 4.02 m/s, 192° | - | - |
| 1777981175 | 16.11° C | 47% | 852.3 hPa | - | 4.02 m/s, 190° | - | - |
| 1777981115 | 16.11° C | 47% | 852.3 hPa | - | 3.13 m/s, 193° | - | - |
| 1777980933 | 16.11° C | 47% | 852.4 hPa | - | 3.58 m/s, 185° | - | - |
| 1777980808 | 16.11° C | 47% | 852.3 hPa | - | 3.13 m/s, 188° | - | - |
| 1777980690 | 16.11° C | 47% | 852.3 hPa | - | 2.68 m/s, 191° | - | - |
| 1777980575 | 16.11° C | 47% | 852.4 hPa | - | 3.13 m/s, 178° | - | - |
| 1777980575 | 16.67° C | 47% | 852.4 hPa | - | 3.13 m/s, 180° | - | - |
| 1777980570 | 16.11° C | 47% | 852.4 hPa | - | 3.13 m/s, 182° | - | - |
| 1777980508 | 16.11° C | 47% | 852.4 hPa | - | 3.13 m/s, 178° | - | - |
* Rain since midnight (hover to see other rain measurements)
** Current wind speed in m/s (hover to see current wind gust speed)